Regional Weather Roundup
Issued by NWS

Home | Current Version | Previous Version | Text Only | Print | Product List | Glossary Off
Versions: 1 2 3 4 5 6 7 8 9 10 11 12 13 14 15 16 17 18 19 20 21 22 23 24 25 26 27 28 29 30 31 32 33 34 35 36 37 38 39 40 41 42 43 44 45 46 47 48 49 50

000
ASUS43 KOAX 231902
RWRNE

WEATHER ROUNDUP FOR NEBRASKA
NATIONAL WEATHER SERVICE OMAHA NE
100 PM CST TUE JAN 23 2018

NOTES: SATELLITE DATA IS BEING USED TO AUGMENT CLOUD COVER ABOVE
       12000 FEET.
       "FAIR" INDICATES FEW OR NO CLOUDS BELOW 12,000 FEET WITH NO
       SIGNIFICANT WEATHER AND/OR OBSTRUCTIONS TO VISIBILITY.


NEZ001>004-019>022-054>056-232000-
NEBRASKA PANHANDLE

CITY           SKY/WX    TMP DP  RH WIND       PRES   REMARKS
SCOTTSBLUFF    SUNNY     32  20  61 NW12      30.23F WCI  23
ALLIANCE       SUNNY     31  23  72 W12       30.19F WCI  22
CHADRON        SUNNY     30  19  63 SW6       30.22F WCI  24
KIMBALL        SUNNY     33  21  61 NW16G22   30.21F WCI  22
SIDNEY         MOSUNNY   35  22  58 NW16      30.22F WCI  25
$$

NEZ057>060-069>072-079>082-232000-
SOUTHWEST NEBRASKA

CITY           SKY/WX    TMP DP  RH WIND       PRES   REMARKS
NORTH PLATTE   SUNNY     34  24  67 W12       30.21S WCI  25
IMPERIAL       SUNNY     35  23  61 NW16      30.22F WCI  25
LEXINGTON      CLOUDY    32  26  77 W13       30.20S WCI  22
MCCOOK         SUNNY     33  24  69 NW18      30.22F WCI  22
OGALLALA       SUNNY     36  24  61 NW20      30.20F WCI  25
$$

NEZ005>010-023>029-035>040-094-232000-
NORTH CENTRAL NEBRASKA

CITY           SKY/WX    TMP DP  RH WIND       PRES   REMARKS
VALENTINE      CLOUDY    38  26  62 W15       30.14S WCI  29
AINSWORTH      CLOUDY    37  29  75 W10       30.13F WCI  29
BROKEN BOW     CLOUDY    39  27  62 NW16      30.16S WCI  30
O`NEILL        CLOUDY    33  28  80 W8        30.12F WCI  27
ORD            CLOUDY    36  27  69 NW6       30.14F WCI  31
THEDFORD       SUNNY     37  28  69 W12       30.16F WCI  29
$$

NEZ041-046>049-061>064-073>077-083>087-232000-
SOUTH CENTRAL NEBRASKA

CITY           SKY/WX    TMP DP  RH WIND       PRES   REMARKS
GRAND ISLAND   MOSUNNY   30  23  75 W10       30.18F WCI  21
AURORA         SUNNY     30  22  72 NW10      30.18F WCI  21
HASTINGS       MOSUNNY   32  24  72 NW13      30.18F WCI  22
HEBRON         MOSUNNY   33  25  72 NW6       30.21S WCI  28
HOLDREGE       CLOUDY    33  28  80 NW12      30.19F WCI  25
KEARNEY        CLOUDY    33  25  72 W8        30.19F WCI  26
YORK           CLOUDY    27  23  86 NW9       30.19S WCI  17
$$

NEZ011>018-030>034-042>045-232000-
NORTHEAST NEBRASKA

CITY           SKY/WX    TMP DP  RH WIND       PRES   REMARKS
NORFOLK        PTSUNNY   29  21  72 VRB7      30.14F WCI  22
ALBION         CLOUDY    29  21  71 NW5       30.15F WCI  24
BLAIR          CLOUDY    23  20  88 NW7       30.17R WCI  15
COLUMBUS       CLOUDY    29  26  89 W6        30.19S WCI  23
FREMONT          N/A    N/A N/A N/A MISG        N/A
TEKAMAH        CLOUDY    24  24 100 NW9       30.19R WCI  14
WAYNE          CLOUDY    24  23  96 NW6       30.15F WCI  17
$$

NEZ050>053-065>068-078-088>093-232000-
SOUTHEAST NEBRASKA

CITY           SKY/WX    TMP DP  RH WIND       PRES   REMARKS
LINCOLN        CLOUDY    25  20  81 W7        30.21S WCI  17
OMAHA EPPLEY   CLOUDY    25  19  78 NW8       30.19S WCI  16
BEATRICE       CLOUDY    27  23  85 W8        30.21S WCI  18
FALLS CITY     CLOUDY    28  23  81 W9        30.20S WCI  19
NEBRASKA CITY  CLOUDY    26  25  94 NW12      30.19S WCI  16
PLATTSMOUTH    CLOUDY    24  21  87 NW9G17    30.19S WCI  15
$$

NEZ044-045-051>053-067-232000-
OMAHA AREA

CITY           SKY/WX    TMP DP  RH WIND       PRES   REMARKS
OMAHA EPPLEY   CLOUDY    25  19  78 NW8       30.19S WCI  16
BLAIR          CLOUDY    23  20  88 NW7       30.17R WCI  15
FREMONT          N/A    N/A N/A N/A MISG        N/A
MILLARD        CLOUDY    26  21  83 W9        30.19F WCI  16
OFFUTT AFB     CLOUDY    25  20  81 NW9       30.19S WCI  15
PLATTSMOUTH    CLOUDY    24  21  87 NW9G17    30.19S WCI  15
WAHOO          CLOUDY    26  22  85 W8        30.20R WCI  17
$$



USA.gov is the U.S. government's official web portal to all federal, state and local government web resources and services.